Regional Weather Roundup
Issued by NWS

Home | Current Version | Previous Version | Graphics & Text | Print | Product List | Glossary On
Versions: 1 2 3 4 5 6 7 8 9 10 11 12 13 14 15 16 17 18 19 20 21 22 23 24 25 26 27 28 29 30 31 32 33 34 35 36 37 38 39 40 41 42 43 44 45 46 47 48 49 50
000
ASUS43 KMKX 222007
RWRWI

WISCONSIN REGIONAL WEATHER ROUNDUP
NATIONAL WEATHER SERVICE MILWAUKEE/SULLIVAN WI
300 PM CDT FRI MAY 22 2015

NOTE: "FAIR" INDICATES FEW OR NO CLOUDS BELOW 12,000 FEET WITH NO
SIGNIFICANT WEATHER AND/OR OBSTRUCTIONS TO VISIBILITY.

WIZ001-002-006>008-014>016-023>028-222100-
NORTHWEST WISCONSIN

CITY           SKY/WX    TMP DP  RH WIND       PRES   REMARKS
SUPERIOR ARPT  SUNNY     55  39  54 NE9       30.20S
ASHLAND        SUNNY     69  31  24 CALM      30.21F
HAYWARD        SUNNY     70  29  21 VRB3      30.20F
SIREN          SUNNY     70  30  22 NW5       30.21F
CUMBERLAND     SUNNY     66  30  26 S7        30.22S
RICE LAKE      SUNNY     69  32  25 W3        30.23S
CHETEK         SUNNY     67  33  27 CALM      30.22S
LADYSMITH      SUNNY     68  32  26 CALM      30.23S
EAU CLAIRE     NOT AVBL
MENOMONIE      SUNNY     71  32  24 NW6       30.22S
NEW RICHMOND   SUNNY     70  30  22 NW5       30.22F
OSCEOLA        SUNNY     70  34  26 W6        30.24S
$$

WIZ003>005-009-010-017-018-222100-
NORTH CENTRAL WISCONSIN

CITY           SKY/WX    TMP DP  RH WIND       PRES   REMARKS
MANITOWISH WTR SUNNY     63  28  27 W8        30.22S
ARBOR VITAE    SUNNY     64  25  22 NW9       30.21F
WOODRUFF       SUNNY     64  25  22 NW9       30.21F
RHINELANDER    SUNNY     67  25  20 MISG      30.22S
EAGLE RIVER    SUNNY     65  17  15 N8        30.20S
LAND O LAKES   SUNNY     65  15  14 W7        30.22S
PHILLIPS       SUNNY     65  32  28 NE7       30.21S
TOMAHAWK       SUNNY     67  30  24 NW10      30.21S
MEDFORD        SUNNY     66  30  25 S3        30.22S
MERRILL        SUNNY     67  31  26 CALM      30.22S
$$

WIZ029-030-035-036-043>047-222100-
CENTRAL WISCONSIN

CITY           SKY/WX    TMP DP  RH WIND       PRES   REMARKS
WAUSAU         SUNNY     68  33  27 W10       30.20F
MOSINEE        SUNNY     66  34  30 NW5       30.23S
MARSHFIELD     SUNNY     68  33  27 W9        30.22F
STEVENS POINT  SUNNY     65  32  28 W7        30.22S
WAUPACA        SUNNY     72  26  18 CALM      30.22S
WAUTOMA        NOT AVBL
WISC RAPIDS    SUNNY     72  26  18 N10       30.23F
CAMP DOUGLAS   NOT AVBL
$$

WIZ011>013-019>022-031-037>040-048>050-222100-
NORTHEAST WISCONSIN

CITY           SKY/WX    TMP DP  RH WIND       PRES   REMARKS
ANTIGO         SUNNY     65  31  28 NW7       30.22S
SHAWANO        SUNNY     70  31  23 W6        30.21S
OCONTO         SUNNY     63  31  31 SE12      30.22F
STURGEON BAY   SUNNY     54  30  40 SE13      30.29S
GREEN BAY      SUNNY     68  32  26 N6        30.23F
MANITOWOC      NOT AVBL
APPLETON       MOSUNNY   64  28  25 NW7       30.23F
CLINTONVILLE   SUNNY     68  28  22 SW5       30.21F
OSHKOSH        SUNNY     65  35  33 E10       30.23S
$$

WIZ032>034-041-042-053>061-222100-
SOUTHWEST WISCONSIN

CITY           SKY/WX    TMP DP  RH WIND       PRES   REMARKS
LA CROSSE      SUNNY     73  35  25 VRB3      30.21S
SPARTA         SUNNY     72  31  22 W3        30.22S
VIROQUA        SUNNY     72  33  23 NW7       30.22S
BOSCOBEL       SUNNY     74  35  24 CALM      30.20F
PRAIRIE DU CHI SUNNY     73  34  24 CALM      30.20F
PLATTEVILLE    SUNNY     72  37  27 W3        30.21F
$$

WIZ056-057-062-063-064-067-068-222100-
SOUTH CENTRAL WISCONSIN

CITY           SKY/WX    TMP DP  RH WIND       PRES   REMARKS
REEDSBURG      SUNNY     69  37  30 NW6       30.21S
BARABOO/DELLS  SUNNY     70  33  25 S7        30.21F
LONE ROCK      NOT AVBL
MINERAL POINT  SUNNY     72  32  23 W3        30.22S
MADISON        MOSUNNY   71  38  29 VRB3      30.22S
MIDDLETON      SUNNY     73  28  18 E7        30.22S
WATERTOWN      SUNNY     68  35  29 CALM      30.22F
MONROE         SUNNY     72  36  26 W3        30.22S
JANESVILLE     MOSUNNY   72  30  21 SW5       30.21S
$$

WIZ051-052-058>065-066-070>072-222100-
SOUTHEAST WISCONSIN

CITY           SKY/WX    TMP DP  RH WIND       PRES   REMARKS
MILWAUKEE      MOSUNNY   56  31  38 E9        30.27F
WAUKESHA       MOSUNNY   64  36  34 S6        30.24F
MILWAUKEE/TIMM SUNNY     61  19  20 SE9       30.26S
RACINE         SUNNY     56  26  31 E9        30.29S
BURLINGTON     SUNNY     66  35  31 E8        30.24S
KENOSHA        SUNNY     60  33  36 E10       30.27S
FOND DU LAC    SUNNY     67  33  28 NE10      30.23S
SHEBOYGAN      SUNNY     59  28  30 SE10      30.26S
WEST BEND      SUNNY     64  32  29 E8        30.24S
JUNEAU         SUNNY     66  33  29 NW9       30.24S
$$

LSZ147-162-222100-
LAKE SUPERIOR

STATION/POSITION TIME  TEMP    WIND        PRES    WAVE
                       AIR SEA DIR/SP/G            HT/PER
                 (UTC) (F)     (DEG/KT/KT) (MB)    (FT/S)
W MID LAKE BUOY  1850   38 37  120/  6/  6   N/A     0
DEVILS ISLAND    1900   50      90/  4/  5   N/A
PORT WING        1940   46      20/  7/  8   N/A
SAXON HARBOR     1840   53      CALM  /  3   N/A
$$

LMZ867-665-643>646-222100-
LAKE MICHIGAN

STATION/POSITION TIME  TEMP    WIND        PRES    WAVE
                       AIR SEA DIR/SP/G            HT/PER
                 (UTC) (F)     (DEG/KT/KT) (MB)    (FT/S)
CHAMBERS ISLAND  1900   57     130/  5/  9   N/A
N MID LAKE BUOY  1850   39 36  160/  8/  8   N/A     1
NORTHPORT PIER   1900   44     140/ 11/ 11   N/A
SISTER BAY       1817   54     150/ 12/ 14   N/A
KEWAUNEE LAKESHO 1900   45     130/  3/  7   N/A
SHEBOYGAN LAKESH 1900          130/  8/  9   N/A
PORT WASHINGTON  1900   47     120/  4/  7   N/A
ATWATER BUOY     1900   45 46  100/  6/  8   N/A
MILWAUKEE LAKESH 1900   46      80/  5/  6   N/A
S MID LAKE BUOY  1850   41 38  350/  8/ 10   N/A
KENOSHA   LAKESH 1900   47      40/  6/  7   N/A
$$

TC  - TEMPERATURE IN CELSIUS
VSB - VISIBILITY IN STATUTE MILES
WCI - WIND CHILL INDEX
HX  - HEAT INDEX




USA.gov is the U.S. government's official web portal to all federal, state and local government web resources and services.